{"data":{"norad_id":66528,"intl_designator":"2025-265N","name":"STARLINK-35928","alt_names":[],"object_type":"PAYLOAD","status":"ACTIVE","operator":null,"country":"US","launch_date":"2025-11-19","launch_site_code":"AFETR","launch_vehicle":null,"mission":null,"orbit_class":"UNKNOWN","rcs_meters":null,"size_class":null,"mass_kg":null,"dimensions":null,"purposes":["comms"],"wikipedia_slug":null,"has_3d_model":false,"image_url":null,"decayed_at":null,"tle_current":{"epoch":"2026-05-25T04:20:28.749984Z","epoch_age_seconds":55341,"freshness":"FRESH","line1":"1 66528U 25265N   26145.18088831  .00015444  00000+0  56937-3 0  9992","line2":"2 66528  43.0008 205.7868 0002256 271.9175  88.1418 15.27589811 28813","mean_motion":15.27589811,"eccentricity":0.0002256,"inclination_deg":43.0008,"raan_deg":205.7868,"arg_perigee_deg":271.9175,"mean_anomaly_deg":88.1418,"bstar":0.00056937,"rev_number":2881,"period_min":94.266143282099,"perigee_km":481.4718415777,"apogee_km":484.5675954891,"semimajor_km":6861.1567185334,"source":"CELESTRAK","updated_at":"2026-05-25T13:38:21.251738Z"}}}